Time,TemperatureF,DewpointF,PressureIn,WindDirection,WindDirectionDegrees,WindSpeedMPH,WindSpeedGustMPH,Humidity,HourlyPrecipIn,Conditions,Clouds,dailyrainin,SoftwareType,DateUTC
2013-01-29 00:01:00,43.0,29.0,29.98,NW,314,8.0,14.0,57,0.00,,,0.03,,2013-01-29 07:01:00,
2013-01-29 00:11:00,43.0,29.0,29.98,NW,314,8.0,14.0,57,0.00,,,0.03,,2013-01-29 07:11:00,
2013-01-29 00:21:00,43.0,30.0,29.98,WNW,289,3.0,10.0,59,0.00,,,0.03,,2013-01-29 07:21:00,
2013-01-29 00:31:00,43.0,30.0,29.98,West,276,4.0,11.0,59,0.00,,,0.03,,2013-01-29 07:31:00,
2013-01-29 00:41:00,43.0,30.0,29.98,West,276,4.0,11.0,59,0.00,,,0.03,,2013-01-29 07:41:00,
2013-01-29 00:52:00,43.0,30.0,29.98,West,260,5.0,14.0,61,0.00,,,0.03,,2013-01-29 07:52:00,
2013-01-29 01:01:00,42.0,33.0,29.98,WSW,251,4.0,9.0,71,0.00,,,0.03,,2013-01-29 08:01:00,
2013-01-29 01:11:00,42.0,33.0,29.98,WSW,251,4.0,9.0,71,0.00,,,0.03,,2013-01-29 08:11:00,
2013-01-29 01:21:00,41.0,33.0,29.98,West,263,5.0,9.0,74,0.00,,,0.03,,2013-01-29 08:21:00,
2013-01-29 01:31:00,41.0,35.0,29.98,WSW,248,2.0,10.0,78,0.00,,,0.03,,2013-01-29 08:31:00,
2013-01-29 01:41:00,41.0,35.0,29.98,WSW,248,2.0,10.0,78,0.00,,,0.03,,2013-01-29 08:41:00,
2013-01-29 01:52:00,40.0,34.0,29.98,WSW,251,0.0,8.0,79,0.00,,,0.03,,2013-01-29 08:52:00,
2013-01-29 02:01:00,40.0,35.0,29.98,WSW,254,5.0,9.0,81,0.00,,,0.03,,2013-01-29 09:01:00,
2013-01-29 02:11:00,40.0,35.0,29.98,WSW,254,5.0,9.0,81,0.00,,,0.03,,2013-01-29 09:11:00,
2013-01-29 02:21:00,39.0,34.0,29.98,WNW,286,1.0,10.0,82,0.00,,,0.03,,2013-01-29 09:21:00,
2013-01-29 02:31:00,39.0,34.0,29.98,West,274,5.0,11.0,81,0.00,,,0.03,,2013-01-29 09:31:00,
2013-01-29 02:42:00,39.0,34.0,29.98,West,274,5.0,11.0,81,0.00,,,0.03,,2013-01-29 09:42:00,
2013-01-29 02:51:00,40.0,33.0,29.98,West,277,6.0,11.0,76,0.00,,,0.03,,2013-01-29 09:51:00,
2013-01-29 03:01:00,40.0,32.0,29.98,West,277,3.0,11.0,74,0.00,,,0.03,,2013-01-29 10:01:00,
2013-01-29 03:11:00,40.0,32.0,29.98,West,277,3.0,11.0,74,0.00,,,0.03,,2013-01-29 10:11:00,
2013-01-29 03:21:00,40.0,32.0,29.98,West,278,8.0,13.0,72,0.00,,,0.03,,2013-01-29 10:21:00,
2013-01-29 03:32:00,40.0,32.0,29.98,WNW,290,3.0,12.0,73,0.00,,,0.03,,2013-01-29 10:32:00,
2013-01-29 03:41:00,40.0,32.0,29.98,WNW,290,3.0,12.0,73,0.00,,,0.03,,2013-01-29 10:41:00,
2013-01-29 03:52:00,40.0,33.0,29.99,West,270,4.0,10.0,75,0.00,,,0.03,,2013-01-29 10:52:00,
2013-01-29 04:01:00,40.0,33.0,29.99,West,270,4.0,10.0,75,0.00,,,0.03,,2013-01-29 11:01:00,
2013-01-29 04:11:00,40.0,33.0,29.99,West,270,4.0,10.0,75,0.00,,,0.03,,2013-01-29 11:11:00,
2013-01-29 04:21:00,39.0,33.0,30.00,WNW,298,9.0,15.0,78,0.00,,,0.03,,2013-01-29 11:21:00,
2013-01-29 04:31:00,39.0,33.0,30.00,WNW,287,8.0,13.0,78,0.00,,,0.03,,2013-01-29 11:31:00,
2013-01-29 04:42:00,39.0,33.0,30.00,WNW,287,8.0,13.0,78,0.00,,,0.03,,2013-01-29 11:42:00,
2013-01-29 04:52:00,39.0,33.0,30.00,West,278,6.0,12.0,79,0.00,,,0.03,,2013-01-29 11:52:00,
2013-01-29 05:02:00,39.0,33.0,30.00,WNW,284,5.0,12.0,79,0.00,,,0.03,,2013-01-29 12:02:00,
2013-01-29 05:11:00,39.0,33.0,30.00,WNW,284,5.0,12.0,79,0.00,,,0.03,,2013-01-29 12:11:00,
2013-01-29 05:21:00,38.0,32.0,29.99,WNW,287,8.0,14.0,78,0.00,,,0.03,,2013-01-29 12:21:00,
2013-01-29 05:32:00,38.0,31.0,30.00,WNW,291,7.0,14.0,77,0.00,,,0.03,,2013-01-29 12:32:00,
2013-01-29 05:42:00,38.0,31.0,30.00,WNW,291,7.0,14.0,77,0.00,,,0.03,,2013-01-29 12:42:00,
2013-01-29 05:52:00,38.0,31.0,29.99,WNW,297,9.0,17.0,77,0.00,,,0.03,,2013-01-29 12:52:00,
2013-01-29 06:01:00,38.0,31.0,29.99,WNW,297,9.0,17.0,77,0.00,,,0.03,,2013-01-29 13:01:00,
2013-01-29 06:11:00,38.0,31.0,29.99,WNW,297,9.0,17.0,77,0.00,,,0.03,,2013-01-29 13:11:00,
2013-01-29 06:22:00,37.0,30.0,30.01,WNW,289,7.0,17.0,75,0.00,,,0.03,,2013-01-29 13:22:00,
2013-01-29 06:32:00,37.0,30.0,30.01,WNW,289,7.0,17.0,75,0.00,,,0.03,,2013-01-29 13:32:00,
2013-01-29 06:43:00,37.0,30.0,30.01,WNW,289,7.0,17.0,75,0.00,,,0.03,,2013-01-29 13:43:00,
2013-01-29 06:52:00,37.0,29.0,30.02,WNW,282,6.0,15.0,73,0.00,,,0.03,,2013-01-29 13:52:00,
2013-01-29 07:01:00,37.0,29.0,30.03,WNW,289,9.0,13.0,73,0.00,,,0.03,,2013-01-29 14:01:00,
2013-01-29 07:12:00,37.0,29.0,30.03,WNW,289,9.0,13.0,73,0.00,,,0.03,,2013-01-29 14:12:00,
2013-01-29 07:21:00,37.0,29.0,30.03,WNW,289,9.0,13.0,73,0.00,,,0.03,,2013-01-29 14:21:00,
2013-01-29 07:32:00,37.0,29.0,30.04,WNW,282,8.0,15.0,72,0.00,,,0.03,,2013-01-29 14:32:00,
2013-01-29 07:42:00,37.0,29.0,30.04,WNW,282,8.0,15.0,72,0.00,,,0.03,,2013-01-29 14:42:00,
2013-01-29 07:52:00,37.0,29.0,30.04,WNW,296,7.0,15.0,72,0.00,,,0.03,,2013-01-29 14:52:00,
2013-01-29 08:02:00,37.0,28.0,30.04,West,280,8.0,15.0,71,0.00,,,0.03,,2013-01-29 15:02:00,
2013-01-29 08:11:00,37.0,28.0,30.04,West,280,8.0,15.0,71,0.00,,,0.03,,2013-01-29 15:11:00,
2013-01-29 08:21:00,37.0,27.0,30.04,WNW,282,10.0,16.0,68,0.00,,,0.03,,2013-01-29 15:21:00,
2013-01-29 08:32:00,38.0,28.0,30.05,WNW,290,10.0,17.0,67,0.00,,,0.03,,2013-01-29 15:32:00,
2013-01-29 08:42:00,38.0,28.0,30.05,WNW,290,10.0,17.0,67,0.00,,,0.03,,2013-01-29 15:42:00,
2013-01-29 08:53:00,38.0,27.0,30.05,West,277,10.0,16.0,63,0.00,,,0.03,,2013-01-29 15:53:00,
2013-01-29 09:01:00,38.0,26.0,30.06,West,267,9.0,17.0,62,0.00,,,0.03,,2013-01-29 16:01:00,
2013-01-29 09:11:00,38.0,26.0,30.06,West,267,9.0,17.0,62,0.00,,,0.03,,2013-01-29 16:11:00,
2013-01-29 09:21:00,39.0,27.0,30.06,WNW,286,7.0,19.0,61,0.00,,,0.03,,2013-01-29 16:21:00,
2013-01-29 09:31:00,39.0,27.0,30.07,West,279,10.0,16.0,61,0.00,,,0.03,,2013-01-29 16:31:00,
2013-01-29 09:42:00,39.0,27.0,30.07,West,279,10.0,16.0,61,0.00,,,0.03,,2013-01-29 16:42:00,
2013-01-29 09:52:00,40.0,28.0,30.07,WNW,283,7.0,15.0,61,0.00,,,0.03,,2013-01-29 16:52:00,
2013-01-29 10:02:00,40.0,27.0,30.08,West,278,7.0,13.0,60,0.00,,,0.03,,2013-01-29 17:02:00,
2013-01-29 10:11:00,40.0,27.0,30.08,West,278,7.0,13.0,60,0.00,,,0.03,,2013-01-29 17:11:00,
2013-01-29 10:21:00,41.0,27.0,30.08,WNW,302,6.0,11.0,57,0.00,,,0.03,,2013-01-29 17:21:00,
2013-01-29 10:31:00,41.0,26.0,30.09,WNW,292,7.0,13.0,54,0.00,,,0.03,,2013-01-29 17:31:00,
2013-01-29 10:41:00,41.0,26.0,30.09,WNW,292,7.0,13.0,54,0.00,,,0.03,,2013-01-29 17:41:00,
2013-01-29 10:52:00,42.0,26.0,30.09,West,278,7.0,14.0,52,0.00,,,0.03,,2013-01-29 17:52:00,
2013-01-29 11:02:00,42.0,26.0,30.09,West,271,8.0,15.0,52,0.00,,,0.03,,2013-01-29 18:02:00,
2013-01-29 11:11:00,42.0,26.0,30.09,West,271,8.0,15.0,52,0.00,,,0.03,,2013-01-29 18:11:00,
2013-01-29 11:21:00,43.0,26.0,30.09,WNW,283,5.0,12.0,51,0.00,,,0.02,,2013-01-29 18:21:00,
2013-01-29 11:33:00,43.0,26.0,30.09,West,280,8.0,11.0,50,0.00,,,0.02,,2013-01-29 18:33:00,
2013-01-29 11:41:00,43.0,26.0,30.09,West,280,8.0,11.0,50,0.00,,,0.02,,2013-01-29 18:41:00,
2013-01-29 11:52:00,44.0,25.0,30.09,WNW,293,7.0,14.0,47,0.00,,,0.02,,2013-01-29 18:52:00,
2013-01-29 12:01:00,45.0,25.0,30.08,West,275,4.0,14.0,46,0.00,,,0.02,,2013-01-29 19:01:00,
2013-01-29 12:11:00,45.0,25.0,30.08,West,275,4.0,14.0,46,0.00,,,0.02,,2013-01-29 19:11:00,
2013-01-29 12:22:00,45.0,22.0,30.07,West,272,8.0,16.0,40,0.00,,,0.02,,2013-01-29 19:22:00,
2013-01-29 12:31:00,45.0,22.0,30.07,West,272,8.0,16.0,40,0.00,,,0.02,,2013-01-29 19:31:00,
2013-01-29 12:41:00,45.0,22.0,30.07,West,272,8.0,16.0,40,0.00,,,0.02,,2013-01-29 19:41:00,
2013-01-29 12:52:00,46.0,22.0,30.06,West,274,10.0,18.0,38,0.00,,,0.02,,2013-01-29 19:52:00,
2013-01-29 13:01:00,46.0,22.0,30.06,West,274,10.0,18.0,38,0.00,,,0.02,,2013-01-29 20:01:00,
2013-01-29 13:12:00,46.0,22.0,30.06,West,274,10.0,18.0,38,0.00,,,0.02,,2013-01-29 20:12:00,
2013-01-29 13:21:00,46.0,21.0,30.06,West,279,8.0,17.0,36,0.00,,,0.02,,2013-01-29 20:21:00,
2013-01-29 13:32:00,47.0,20.0,30.05,WNW,285,13.0,24.0,34,0.00,,,0.02,,2013-01-29 20:32:00,
2013-01-29 13:42:00,47.0,20.0,30.05,WNW,285,13.0,24.0,34,0.00,,,0.02,,2013-01-29 20:42:00,
2013-01-29 13:53:00,47.0,20.0,30.05,West,269,6.0,16.0,34,0.00,,,0.02,,2013-01-29 20:53:00,
2013-01-29 14:01:00,48.0,20.0,30.05,WNW,287,10.0,15.0,33,0.00,,,0.01,,2013-01-29 21:01:00,
2013-01-29 14:11:00,48.0,20.0,30.05,WNW,287,10.0,15.0,33,0.00,,,0.01,,2013-01-29 21:11:00,
2013-01-29 14:21:00,48.0,22.0,30.05,WNW,289,9.0,17.0,35,0.00,,,0.01,,2013-01-29 21:21:00,
2013-01-29 14:32:00,48.0,22.0,30.05,WNW,289,9.0,17.0,35,0.00,,,0.01,,2013-01-29 21:32:00,
2013-01-29 14:41:00,48.0,22.0,30.05,WNW,289,9.0,17.0,35,0.00,,,0.01,,2013-01-29 21:41:00,
2013-01-29 14:52:00,48.0,22.0,30.03,West,281,8.0,21.0,36,0.00,,,0.00,,2013-01-29 21:52:00,
2013-01-29 15:02:00,48.0,21.0,30.03,WNW,283,7.0,17.0,34,0.00,,,0.00,,2013-01-29 22:02:00,
2013-01-29 15:12:00,48.0,21.0,30.03,WNW,283,7.0,17.0,34,0.00,,,0.00,,2013-01-29 22:12:00,
2013-01-29 15:21:00,48.0,20.0,30.02,WNW,285,6.0,17.0,33,0.00,,,0.00,,2013-01-29 22:21:00,
2013-01-29 15:32:00,48.0,21.0,30.02,West,280,3.0,12.0,34,0.00,,,0.00,,2013-01-29 22:32:00,
2013-01-29 15:41:00,48.0,21.0,30.02,West,280,3.0,12.0,34,0.00,,,0.00,,2013-01-29 22:41:00,
2013-01-29 15:53:00,49.0,20.0,30.03,WNW,285,5.0,12.0,32,0.00,,,0.00,,2013-01-29 22:53:00,
2013-01-29 16:01:00,49.0,22.0,30.03,West,260,8.0,18.0,34,0.00,,,0.00,,2013-01-29 23:01:00,
2013-01-29 16:11:00,49.0,22.0,30.03,West,260,8.0,18.0,34,0.00,,,0.00,,2013-01-29 23:11:00,
2013-01-29 16:22:00,49.0,20.0,30.03,West,265,7.0,14.0,32,0.00,,,0.00,,2013-01-29 23:22:00,
2013-01-29 16:31:00,49.0,19.0,30.04,WNW,288,10.0,17.0,30,0.00,,,0.00,,2013-01-29 23:31:00,
2013-01-29 16:41:00,49.0,19.0,30.04,WNW,288,10.0,17.0,30,0.00,,,0.00,,2013-01-29 23:41:00,
2013-01-29 16:53:00,48.0,19.0,30.04,WNW,290,11.0,26.0,31,0.00,,,0.00,,2013-01-29 23:53:00,
2013-01-29 17:01:00,49.0,20.0,30.05,WNW,285,12.0,26.0,31,0.00,,,0.00,,2013-01-30 00:01:00,
2013-01-29 17:11:00,49.0,20.0,30.05,WNW,285,12.0,26.0,31,0.00,,,0.00,,2013-01-30 00:11:00,
2013-01-29 17:21:00,48.0,20.0,30.04,WNW,290,12.0,20.0,32,0.00,,,0.00,,2013-01-30 00:21:00,
2013-01-29 17:31:00,48.0,20.0,30.04,WNW,290,11.0,20.0,33,0.00,,,0.00,,2013-01-30 00:31:00,
2013-01-29 17:42:00,48.0,20.0,30.04,WNW,290,11.0,20.0,33,0.00,,,0.00,,2013-01-30 00:42:00,
2013-01-29 17:52:00,47.0,21.0,30.05,WNW,286,6.0,19.0,35,0.00,,,0.00,,2013-01-30 00:52:00,
2013-01-29 18:01:00,47.0,21.0,30.05,WNW,283,8.0,20.0,35,0.00,,,0.00,,2013-01-30 01:01:00,
2013-01-29 18:11:00,47.0,21.0,30.05,WNW,283,8.0,20.0,35,0.00,,,0.00,,2013-01-30 01:11:00,
2013-01-29 18:22:00,46.0,21.0,30.06,West,281,11.0,19.0,36,0.00,,,0.00,,2013-01-30 01:22:00,
2013-01-29 18:31:00,46.0,21.0,30.06,WNW,291,10.0,21.0,37,0.00,,,0.00,,2013-01-30 01:31:00,
2013-01-29 18:42:00,46.0,21.0,30.06,WNW,291,10.0,21.0,37,0.00,,,0.00,,2013-01-30 01:42:00,
2013-01-29 18:52:00,46.0,22.0,30.08,WNW,296,4.0,15.0,38,0.00,,,0.00,,2013-01-30 01:52:00,
2013-01-29 19:01:00,46.0,22.0,30.08,WNW,299,5.0,16.0,38,0.00,,,0.00,,2013-01-30 02:01:00,
2013-01-29 19:11:00,46.0,22.0,30.09,NW,315,3.0,11.0,39,0.00,,,0.00,,2013-01-30 02:11:00,
2013-01-29 19:21:00,46.0,22.0,30.09,NW,315,3.0,11.0,39,0.00,,,0.00,,2013-01-30 02:21:00,
2013-01-29 19:32:00,46.0,23.0,30.09,WNW,292,6.0,12.0,40,0.00,,,0.00,,2013-01-30 02:32:00,
2013-01-29 19:41:00,46.0,23.0,30.09,WNW,292,6.0,12.0,40,0.00,,,0.00,,2013-01-30 02:41:00,
2013-01-29 19:53:00,45.0,22.0,30.10,NW,313,6.0,10.0,40,0.00,,,0.00,,2013-01-30 02:53:00,
2013-01-29 20:02:00,45.0,22.0,30.10,WNW,292,3.0,10.0,40,0.00,,,0.00,,2013-01-30 03:02:00,
2013-01-29 20:11:00,45.0,22.0,30.10,WNW,292,3.0,10.0,40,0.00,,,0.00,,2013-01-30 03:11:00,
2013-01-29 20:21:00,45.0,23.0,30.11,WNW,293,4.0,13.0,41,0.00,,,0.00,,2013-01-30 03:21:00,
2013-01-29 20:31:00,45.0,23.0,30.11,WNW,293,4.0,13.0,41,0.00,,,0.00,,2013-01-30 03:31:00,
2013-01-29 20:41:00,45.0,23.0,30.11,WNW,293,4.0,13.0,41,0.00,,,0.00,,2013-01-30 03:41:00,
2013-01-29 20:52:00,45.0,22.0,30.11,WNW,290,6.0,11.0,40,0.00,,,0.00,,2013-01-30 03:52:00,
2013-01-29 21:01:00,45.0,22.0,30.11,WNW,290,6.0,11.0,40,0.00,,,0.00,,2013-01-30 04:01:00,
2013-01-29 21:11:00,45.0,22.0,30.11,WNW,290,6.0,11.0,40,0.00,,,0.00,,2013-01-30 04:11:00,
2013-01-29 21:21:00,45.0,23.0,30.12,WNW,286,4.0,10.0,42,0.00,,,0.00,,2013-01-30 04:21:00,
2013-01-29 21:32:00,45.0,23.0,30.12,WNW,286,4.0,10.0,42,0.00,,,0.00,,2013-01-30 04:32:00,
2013-01-29 21:42:00,45.0,23.0,30.12,WNW,286,4.0,10.0,42,0.00,,,0.00,,2013-01-30 04:42:00,
2013-01-29 21:52:00,45.0,23.0,30.13,WNW,291,6.0,9.0,42,0.00,,,0.00,,2013-01-30 04:52:00,
2013-01-29 22:03:00,45.0,23.0,30.13,WNW,294,5.0,11.0,41,0.00,,,0.00,,2013-01-30 05:03:00,
2013-01-29 22:11:00,45.0,23.0,30.14,WNW,292,2.0,9.0,41,0.00,,,0.00,,2013-01-30 05:11:00,
2013-01-29 22:21:00,45.0,23.0,30.14,WNW,292,2.0,9.0,41,0.00,,,0.00,,2013-01-30 05:21:00,
2013-01-29 22:32:00,45.0,23.0,30.14,NW,307,4.0,12.0,41,0.00,,,0.00,,2013-01-30 05:32:00,
2013-01-29 22:42:00,45.0,23.0,30.14,NW,307,4.0,12.0,41,0.00,,,0.00,,2013-01-30 05:42:00,
2013-01-29 22:52:00,45.0,23.0,30.14,WNW,298,3.0,12.0,41,0.00,,,0.00,,2013-01-30 05:52:00,
2013-01-29 23:02:00,45.0,23.0,30.15,WNW,298,2.0,10.0,41,0.00,,,0.00,,2013-01-30 06:02:00,
2013-01-29 23:11:00,45.0,23.0,30.15,WNW,298,2.0,10.0,41,0.00,,,0.00,,2013-01-30 06:11:00,
2013-01-29 23:21:00,45.0,23.0,30.15,WNW,284,3.0,9.0,41,0.00,,,0.00,,2013-01-30 06:21:00,
2013-01-29 23:31:00,44.0,25.0,30.16,West,267,0.0,0.0,46,0.00,,,0.00,,2013-01-30 06:31:00,
2013-01-29 23:41:00,44.0,25.0,30.16,West,267,0.0,0.0,46,0.00,,,0.00,,2013-01-30 06:41:00,
2013-01-29 23:51:00,43.0,26.0,30.16,West,266,0.0,0.0,50,0.00,,,0.00,,2013-01-30 06:51:00,